New Bedford, MA

6:49 AM EDT on August 24, 2017 (GMT -0400)
New Bedford Regional

Weather History for KEWB - April, 2014

Change the Weather History Date:

Sunday, April 27, 2014

  Actual Average Record
Temperature  
Mean Temperature 46 °F -  
Max Temperature 50 °F 59 °F 85 °F (1990)
Min Temperature 42 °F 43 °F 30 °F (2002)
Degree Days  
Heating Degree Days 19    
Moisture  
Dew Point 40 °F    
Average Humidity 84    
Maximum Humidity 93    
Minimum Humidity 68    
Precipitation  
Precipitation 0.01 in - - ()
Sea Level Pressure  
Sea Level Pressure 29.93 in    
Wind  
Wind Speed 3 mph (North)    
Max Wind Speed 7 mph    
Max Gust Speed -    
Visibility 9 miles    
Events Rain    
Averages and records for this station are not official NWS values.
T = Trace of Precipitation, MM = Missing Value Source: NWS Daily Summary

Daily Weather History Graph

Daily Weather History Graph

Search for Another Location

Airport or City:

Trip Planner

Search our weather history database for the weather conditions in past years. The results will help you decide how hot, cold, wet, or windy it might be!

Date:

Astronomy

Apr. 27, 2014 Rise Set
Actual Time 5:45 AM EDT 7:37 PM EDT
Civil Twilight 5:16 AM EDT 8:07 PM EDT
Nautical Twilight 4:39 AM EDT 8:44 PM EDT
Astronomical Twilight 4:00 AM EDT 9:23 PM EDT
Moon 4:46 AM EDT (4/27) 6:06 PM EDT (4/27)
Length of Visible Light 14h 51m
Length of Day
13h 51m
Waning Crescent, 3% of the Moon is Illuminated
Apr 27
Waning Crescent
Apr 29
New
May 6
First Quarter
May 14
Full
May 21
Last Quarter

Hourly Weather History & Observations

Time (EDT) Temp. Windchill Dew Point Humidity Pressure Visibility Wind Dir Wind Speed Gust Speed Precip Events Conditions
12:53 AM 42.1 °F 40.2 °F 39.0 °F 89% 29.86 in 10.0 mi ENE 3.5 mph - N/A   Overcast
1:53 AM 42.1 °F - 37.9 °F 85% 29.85 in 10.0 mi Calm Calm - N/A   Overcast
2:53 AM 42.1 °F 40.2 °F 37.9 °F 85% 29.84 in 10.0 mi ESE 3.5 mph - N/A   Overcast
3:53 AM 43.0 °F - 39.0 °F 86% 29.85 in 10.0 mi Calm Calm - 0.00 in Rain Light Rain
4:53 AM 42.1 °F - 39.9 °F 92% 29.85 in 10.0 mi Calm Calm - 0.00 in   Overcast
5:41 AM 43.0 °F - 39.0 °F 86% 29.85 in 10.0 mi Calm Calm - N/A   Overcast
5:53 AM 43.0 °F 41.3 °F 39.9 °F 89% 29.85 in 10.0 mi South 3.5 mph - N/A   Overcast
6:12 AM 43.0 °F 41.3 °F 39.9 °F 89% 29.85 in 10.0 mi South 3.5 mph - 0.00 in Rain Light Rain
6:53 AM 43.0 °F 41.3 °F 39.9 °F 89% 29.87 in 6.0 mi South 3.5 mph - 0.00 in   Overcast
7:53 AM 42.8 °F 40.1 °F 41.0 °F 93% 29.88 in 10.0 mi South 4.6 mph - N/A Rain Light Rain
8:00 AM 43.0 °F 41.3 °F 41.0 °F 93% 29.88 in 10.0 mi SSE 3.5 mph - 0.00 in Rain Light Rain
8:53 AM 44.1 °F - 41.0 °F 89% 29.88 in 10.0 mi Calm Calm - 0.00 in   Overcast
9:39 AM 46.0 °F - 43.0 °F 89% 29.89 in 10.0 mi Calm Calm - N/A   Overcast
9:53 AM 46.0 °F 43.9 °F 42.1 °F 86% 29.90 in 10.0 mi Variable 4.6 mph - N/A   Overcast
10:53 AM 46.0 °F 43.1 °F 43.0 °F 89% 29.92 in 4.0 mi North 5.8 mph - 0.00 in Rain Light Rain
11:53 AM 44.6 °F 41.4 °F 42.8 °F 93% 29.94 in 2.5 mi North 5.8 mph - N/A Rain Light Rain
11:57 AM 44.1 °F 40.8 °F 42.1 °F 93% 29.94 in 4.0 mi North 5.8 mph - 0.00 in Rain Light Rain
12:53 PM 45.0 °F 42.6 °F 41.0 °F 86% 29.94 in 10.0 mi Variable 4.6 mph - 0.00 in   Overcast
1:53 PM 45.0 °F 43.5 °F 41.0 °F 86% 29.95 in 10.0 mi Variable 3.5 mph - N/A   Overcast
2:10 PM 46.0 °F 43.1 °F 41.0 °F 83% 29.95 in 10.0 mi NNW 5.8 mph - N/A   Overcast
2:53 PM 46.0 °F - 39.9 °F 79% 29.96 in 10.0 mi Calm Calm - N/A   Overcast
3:15 PM 46.9 °F - 39.9 °F 77% 29.95 in 10.0 mi Variable 4.6 mph - N/A   Overcast
3:29 PM 48.0 °F - 41.0 °F 77% 29.95 in 10.0 mi NNE 4.6 mph - N/A   Overcast
3:53 PM 48.2 °F - 39.2 °F 71% 29.96 in 10.0 mi North 5.8 mph - N/A   Overcast
4:53 PM 50.0 °F - 39.9 °F 68% 29.96 in 10.0 mi NNE 6.9 mph - N/A   Mostly Cloudy
5:03 PM 50.0 °F - 39.9 °F 68% 29.96 in 10.0 mi Variable 6.9 mph - N/A   Mostly Cloudy
5:53 PM 48.0 °F - 39.9 °F 74% 29.97 in 10.0 mi NE 5.8 mph - N/A   Mostly Cloudy
6:53 PM 48.0 °F - 39.0 °F 71% 29.98 in 10.0 mi North 4.6 mph - N/A   Mostly Cloudy
7:53 PM 46.0 °F - 39.0 °F 76% 30.00 in 10.0 mi Calm Calm - N/A   Partly Cloudy
8:53 PM 43.0 °F 41.3 °F 39.9 °F 89% 30.02 in 10.0 mi WSW 3.5 mph - N/A   Overcast
9:53 PM 43.0 °F 41.3 °F 39.9 °F 89% 30.03 in 10.0 mi WNW 3.5 mph - N/A   Mostly Cloudy
10:53 PM 46.0 °F 42.5 °F 41.0 °F 83% 30.03 in 10.0 mi WNW 6.9 mph - 0.00 in Rain Light Rain
11:53 PM 45.0 °F 41.2 °F 39.0 °F 80% 30.03 in 10.0 mi WNW 6.9 mph - 0.00 in   Mostly Cloudy